Regional Weather Roundup
Issued by NWS Midland/Odessa, TX

Home | Current Version | Previous Version | Text Only | Print | Product List | Glossary On
Versions: 1 2 3 4 5 6 7 8 9 10 11 12 13 14 15 16 17 18 19 20 21 22 23 24 25 26 27 28 29 30 31 32 33 34 35 36 37 38 39 40 41 42 43 44 45 46 47 48 49 50
000
ASUS44 KMAF 171910
RWRMAF
MIDLAND AREA WEATHER ROUNDUP
NATIONAL WEATHER SERVICE MIDLAND TX
200 PM CDT THU APR 17 2014

...IN SOUTHWEST TEXAS AND SOUTHEAST NEW MEXICO...

CITY           SKY/WX    TMP DP  RH WIND       PRES   REMARKS
ALPINE         SUNNY     71  27  19 NE12G26   30.17S
ANDREWS        FAIR      69  39  34 NE8G21    30.09S
ARTESIA        SUNNY     64  32  29 N18G26    30.14F
BIG SPRING     MOSUNNY   69  45  41 CALM      30.11S
CARLSBAD         N/A     68  31  25 N20G26    30.13F
DRYDEN           N/A     79  40  24 NE9G20    30.00F
FORT STOCKTON  SUNNY     72  32  23 NW17G25   30.07F
GUAD PASS      SUNNY     66  29  24 E20       30.16S
HOBBS          SUNNY     66  34  30 N15G24    30.13S
MARFA          SUNNY     72  25  17 NE16G22   30.13S
MIDLAND AIRPK  SUNNY     70  44  38 SE3       30.08F
MIDLAND INTL   SUNNY     69  45  41 E7        30.07F
ODESSA         SUNNY     71  41  33 NE8G16    30.07F
PECOS          SUNNY     74  33  22 NW16G24   30.07F
PRESIDIO       FAIR      86  12   6 NW5       29.97F
SEMINOLE       SUNNY     67  38  34 NE8G18    30.11F
SNYDER         CLOUDY    61  49  64 SE3       30.11S
WINK           SUNNY     75  34  22 N8G20     30.06F
$$
...OTHER STATIONS IN TEXAS...

CITY           SKY/WX    TMP DP  RH WIND       PRES   REMARKS
ABILENE          N/A    N/A N/A N/A SE12      30.10S
AMARILLO       CLOUDY    45  34  65 N15       30.22F WCI  38
AUSTIN         CLOUDY    65  58  78 E9        30.09F
BROWNSVILLE    CLOUDY    73  66  78 NE6       29.98F
CORPUS CHRISTI PTSUNNY   72  65  78 E16       30.03S
DALLAS FTW     DRZL/FOG  60  55  83 SE6       30.15S VSB 1
DEL RIO        PTSUNNY   73  54  51 SE9       30.01R
EL PASO        SUNNY     75  19  12 VRB5      30.07F
HOUSTON INT    MOSUNNY   72  56  57 E9        30.10F
LUBBOCK        CLOUDY    57  42  57 NE15G21   30.15R
SAN ANGELO     CLOUDY    66  52  60 S10       30.07S
SAN ANTONIO    LGT RAIN  65  60  84 E5        30.07F
WACO           CLOUDY    67  56  67 SE12      30.12F
WICHITA FALLS  NOT AVBL
$$
...OTHER LOCATIONS IN NEW MEXICO...

CITY           SKY/WX    TMP DP  RH WIND       PRES   REMARKS
ALAMAGORDO     MOSUNNY   72  23  16 N5        30.10F
ALBUQUERQUE    CLOUDY    62  22  21 CALM      30.15F
CANNON AFB     SUNNY     58  33  38 NE13G26   30.17F
CLOVIS         MOSUNNY   59  36  41 N16G22    30.21S
HOLLOMAN AFB   MOSUNNY   71  25  17 VRB6      30.08F
ROSWELL        SUNNY     66  32  28 N16       30.15F
RUIDOSO        SUNNY     55  23  28 N6        30.22F
SANTA FE       SUNNY     55  26  32 SE8G17    30.17F
TRUTH OR CONSE SUNNY     68  25  19 MISG      30.10F
TUCUMCARI      PTSUNNY   55  34  45 NE9G22    30.20F
$$



USA.gov is the U.S. government's official web portal to all federal, state and local government web resources and services.